Location: Goettingen
(51.5300°N, 9.9433°E)
Time: 13:08:40
(UTC+02:00)

ISS - Pass Details

Date: 18 September 2020
Orbit: 419 x 420 km, 51.6° (Epoch: 18 September)

Event Time Altitude Azimuth Distance (km) Brightness Sun altitude
Rises 20:02:28 0° 191° (S) 2,354 0.1 -6.3°
Reaches altitude 10° 20:05:56 10° 153° (SSE) 1,496 -1.3 -6.8°
Maximum altitude 20:06:51 11° 137° (SE) 1,445 -1.5 -7.0°
Drops below altitude 10° 20:07:46 10° 121° (ESE) 1,499 -1.6 -7.1°
Enters shadow 20:08:14 - 113° (ESE) 1,564 -1.5 -7.2°
